Philip, SD

5:14 AM MDT on May 29, 2017 (GMT -0600)
Philip

Weather History for KPHP - January, 2012

Change the Weather History Date:

Wednesday, January 11, 2012

  Actual Average Record
Temperature  
Mean Temperature 21 °F 22 °F  
Max Temperature 33 °F 34 °F 67 °F (1990)
Min Temperature 8 °F 9 °F -26 °F (1982)
Degree Days  
Heating Degree Days 44 43  
Month to date heating degree days 341 480  
Since 1 July heating degree days 2829 3415  
Cooling Degree Days 0 0  
Month to date cooling degree days 0 0  
Year to date cooling degree days 0 0  
Moisture  
Dew Point 17 °F    
Average Humidity 73    
Maximum Humidity 92    
Minimum Humidity 53    
Precipitation  
Precipitation 0.01 in 0.01 in 0.28 in (2013)
Month to date precipitation 0.01 0.11  
Year to date precipitation 0.01 0.11  
Sea Level Pressure  
Sea Level Pressure 30.10 in    
Wind  
Wind Speed 23 mph (NNW)    
Max Wind Speed 38 mph    
Max Gust Speed 47 mph    
Visibility 8 miles    
Events Snow    
T = Trace of Precipitation, MM = Missing Value Source: NWS Daily Summary

Daily Weather History Graph

Daily Weather History Graph

Search for Another Location

Airport or City:

Trip Planner

Search our weather history database for the weather conditions in past years. The results will help you decide how hot, cold, wet, or windy it might be!

Date:

Astronomy

Jan. 11, 2012 Rise Set
Actual Time 7:19 AM MST 4:28 PM MST
Civil Twilight 6:47 AM MST 5:01 PM MST
Nautical Twilight 6:11 AM MST 5:37 PM MST
Astronomical Twilight 5:36 AM MST 6:11 PM MST
Moon 7:37 PM MST (1/11) 8:26 AM MST (1/11)
Length of Visible Light 10h 13m
Length of Day
9h 08m
Waning Gibbous, 93% of the Moon is Illuminated
Jan 11
Waning Gibbous
Jan 16
Last Quarter
Jan 23
New
Jan 30
First Quarter
Feb 7
Full

Hourly Weather History & Observations

Time (MST) Temp. Windchill Dew Point Humidity Pressure Visibility Wind Dir Wind Speed Gust Speed Precip Events Conditions
12:08 AM 33.8 °F 21.6 °F 30.2 °F 87% 29.87 in 4.0 mi NNW 23.0 mph 36.8 mph 0.00 in Snow Light Snow
12:16 AM 33.8 °F 20.3 °F 30.2 °F 87% 29.87 in 3.0 mi NNW 28.8 mph 36.8 mph 0.00 in Snow Light Snow
12:23 AM 33.8 °F 20.8 °F 30.2 °F 87% 29.88 in 2.0 mi NNW 26.5 mph 35.7 mph 0.00 in Snow Light Snow
12:35 AM 32.0 °F 19.5 °F 30.2 °F 93% 29.89 in 2.5 mi NNW 21.9 mph 34.5 mph 0.00 in Snow Light Snow
12:45 AM 32.0 °F 19.8 °F 30.2 °F 93% 29.90 in 3.0 mi NNW 20.7 mph 27.6 mph 0.00 in Snow Light Snow
12:55 AM 32.0 °F 18.9 °F 30.0 °F 92% 29.92 in 4.0 mi NNW 24.2 mph 29.9 mph 0.00 in Snow Light Snow
1:08 AM 32.0 °F 19.5 °F 30.2 °F 93% 29.91 in 2.5 mi NNW 21.9 mph 31.1 mph 0.00 in Snow Light Snow
1:21 AM 32.0 °F 20.1 °F 30.2 °F 93% 29.93 in 1.5 mi NNW 19.6 mph 25.3 mph 0.00 in Snow Light Snow
1:33 AM 32.0 °F 20.1 °F 30.2 °F 93% 29.94 in 0.8 mi NNW 19.6 mph 31.1 mph 0.00 in Snow Light Snow
1:42 AM 30.2 °F 16.5 °F 28.4 °F 93% 29.95 in 1.0 mi NNW 24.2 mph 31.1 mph 0.00 in Snow Light Snow
1:50 AM 30.2 °F 16.5 °F 28.4 °F 93% 29.95 in 2.0 mi NNW 24.2 mph 32.2 mph 0.01 in Snow Light Snow
1:55 AM 30.9 °F 17.8 °F 28.9 °F 92% 29.98 in 2.0 mi NNW 23.0 mph 32.2 mph 0.01 in Snow Light Snow
2:10 AM 30.2 °F 17.1 °F 28.4 °F 93% 29.96 in 6.0 mi NNW 21.9 mph 32.2 mph 0.00 in Snow Light Snow
2:55 AM 32.0 °F 18.9 °F 27.0 °F 82% 30.00 in 10.0 mi NNW 24.2 mph 33.4 mph 0.00 in   Overcast
3:43 AM 30.2 °F 17.1 °F 26.6 °F 86% 30.00 in 10.0 mi NNW 21.9 mph 27.6 mph 0.00 in   Overcast
3:55 AM 30.9 °F 18.4 °F 26.1 °F 82% 30.03 in 10.0 mi NNW 20.7 mph 26.5 mph 0.00 in   Overcast
4:55 AM 30.0 °F 16.6 °F 25.0 °F 82% 30.06 in 10.0 mi NNW 23.0 mph - N/A   Mostly Cloudy
5:35 AM 28.4 °F 12.5 °F 21.2 °F 74% 30.05 in 10.0 mi NNW 31.1 mph 43.7 mph N/A   Overcast
5:55 AM 27.0 °F 10.5 °F 21.0 °F 78% 30.12 in 10.0 mi NNW 31.1 mph 43.7 mph N/A   Overcast
6:55 AM 26.1 °F 10.7 °F 19.9 °F 78% 30.15 in 10.0 mi NNW 25.3 mph 39.1 mph N/A   Overcast
7:55 AM 24.1 °F 8.0 °F 17.1 °F 75% 30.19 in 10.0 mi NW 25.3 mph 40.3 mph 0.00 in   Overcast
8:04 AM 24.8 °F 8.1 °F 17.6 °F 74% 30.15 in 10.0 mi NW 28.8 mph 36.8 mph N/A   Overcast
8:55 AM 21.9 °F 4.8 °F 12.9 °F 68% 30.22 in 10.0 mi NNW 26.5 mph 35.7 mph N/A   Overcast
9:55 AM 21.9 °F 3.7 °F 12.9 °F 68% 30.25 in 10.0 mi NW 31.1 mph 41.4 mph 0.00 in Snow Light Snow
10:55 AM 21.9 °F 5.1 °F 10.9 °F 63% 30.24 in 10.0 mi NNW 25.3 mph 36.8 mph 0.00 in   Scattered Clouds
11:55 AM 19.9 °F 1.8 °F 10.0 °F 65% 30.23 in 10.0 mi NW 27.6 mph 39.1 mph N/A   Overcast
12:55 PM 19.0 °F 2.0 °F 9.0 °F 65% 30.24 in 9.0 mi NW 23.0 mph 35.7 mph 0.00 in   Overcast
1:55 PM 19.0 °F -0.3 °F 7.0 °F 59% 30.24 in 10.0 mi NW 31.1 mph 38.0 mph 0.00 in   Overcast
2:55 PM 18.0 °F 0.6 °F 5.0 °F 57% 30.25 in 10.0 mi NNW 23.0 mph 29.9 mph 0.00 in   Overcast
3:55 PM 18.0 °F -0.5 °F 3.0 °F 52% 30.24 in 10.0 mi NW 26.5 mph 34.5 mph N/A   Mostly Cloudy
4:55 PM 16.0 °F 0.1 °F 1.9 °F 54% 30.26 in 10.0 mi NW 17.3 mph 24.2 mph N/A   Overcast
5:55 PM 16.0 °F 1.7 °F 1.9 °F 54% 30.27 in 10.0 mi NW 13.8 mph 21.9 mph N/A   Overcast
6:55 PM 15.1 °F -2.0 °F 1.9 °F 56% 30.27 in 10.0 mi NNW 19.6 mph 24.2 mph N/A   Overcast
7:55 PM 12.9 °F -2.2 °F 1.0 °F 59% 30.28 in 10.0 mi NW 13.8 mph 20.7 mph N/A   Scattered Clouds
8:55 PM 12.0 °F -6.5 °F -0.0 °F 59% 30.28 in 10.0 mi NNW 20.7 mph 29.9 mph N/A   Clear
9:55 PM 10.9 °F -7.0 °F -0.9 °F 59% 30.28 in 10.0 mi NW 18.4 mph 24.2 mph N/A   Clear
10:55 PM 9.0 °F -9.0 °F -2.0 °F 61% 30.29 in 10.0 mi NW 17.3 mph - N/A   Clear
11:55 PM 8.1 °F -6.2 °F -2.9 °F 61% 30.29 in 10.0 mi NW 10.4 mph - N/A   Clear